sat.trackr.live / text

‹ back to catalog

STARLINK-34287

NORAD 64670 · 2025-139G

PAYLOAD ACTIVE UNKNOWN

§ Identity

Operator
Country
US
Launch date
2025-06-28
Launch site
AFETR
Launch vehicle
Mass (kg)
RCS (m²)

Purposes: comms

External: N2YO · Heavens-Above · Gunter

§ Orbital elements

Epoch: 2026-05-25T05:17:54.752640Z

Period
93.85 min
Inclination
53.1599°
Eccentricity
0.0003235
Mean motion
15.34419781 rev/d
Perigee alt
460.4 km
Apogee alt
464.9 km
Semi-major
6,840.8 km
B*
7.5296e-4
RAAN
130.6933°
Arg perigee
95.9370°
Mean anomaly
264.2002°
Rev number
5,201

§ Raw data

STARLINK-342871 64670U 25139G   26145.22077260  .00025167  00000+0  75296-3 0  99992 64670  53.1599 130.6933 0003235  95.9370 264.2002 15.34419781 52015

JSON: /api/v1/satellites/64670 · /tle

For live sub-satellite position, see the globe view (requires WebGL).

§ Visibility from observer

Set your observer location to see the next 7 days of passes ≥ 10°. The values pass through the URL so the page stays shareable.

No JS? Fill the form by hand. The geolocation button needs JavaScript.